Date Time,Air Temp,Sky Temp,Clarity,Light Level,Rain Sensor,Readings
2011-07-15 00:00:07,25.1,-6.0,31.1,0.5,2.3,112
2011-07-15 00:05:07,25.0,-6.1,31.1,0.5,2.3,111
2011-07-15 00:10:07,24.9,-6.1,31.0,0.5,2.3,112
2011-07-15 00:15:07,24.9,-6.3,31.2,0.5,2.3,112
2011-07-15 00:20:07,24.8,-6.3,31.1,0.5,2.3,112
2011-07-15 00:25:07,24.6,-6.4,31.1,0.6,2.3,112
2011-07-15 00:30:07,24.5,-6.4,31.0,0.6,2.3,112
2011-07-15 00:35:07,24.4,-6.5,30.9,0.6,2.3,112
2011-07-15 00:40:07,24.3,-6.5,30.8,0.6,2.3,112
2011-07-15 00:45:07,24.2,-6.7,30.8,0.6,2.3,112
2011-07-15 00:50:07,24.1,-6.7,30.8,0.6,2.3,112
2011-07-15 00:55:07,24.1,-6.7,30.8,0.6,2.3,112
2011-07-15 01:00:07,24.0,-6.7,30.8,0.6,2.3,112
2011-07-15 01:05:07,24.0,-6.7,30.7,0.7,2.3,112
2011-07-15 01:10:07,23.9,-6.9,30.8,0.7,2.3,112
2011-07-15 01:15:07,23.8,-6.8,30.6,0.7,2.3,112
2011-07-15 01:20:07,23.7,-6.6,30.4,0.7,2.3,112
2011-07-15 01:25:07,23.8,-6.6,30.4,0.7,2.3,111
2011-07-15 01:30:07,23.8,-6.6,30.4,0.7,2.3,112
2011-07-15 01:35:07,23.8,-6.7,30.5,0.7,2.3,112
2011-07-15 01:40:07,23.7,-6.8,30.5,0.7,2.3,111
2011-07-15 01:45:07,23.7,-6.8,30.5,0.7,2.3,112
2011-07-15 01:50:07,23.6,-6.9,30.5,0.7,2.3,112
2011-07-15 01:55:07,23.6,-6.9,30.5,0.7,2.3,111
2011-07-15 02:00:07,23.6,-6.9,30.5,0.7,2.3,112
2011-07-15 02:05:07,23.5,-7.0,30.6,0.7,2.2,112
2011-07-15 02:10:07,23.5,-7.1,30.6,0.7,2.2,111
2011-07-15 02:15:07,23.4,-7.1,30.6,0.7,2.3,112
2011-07-15 02:20:07,23.4,-7.1,30.5,0.7,2.3,111
2011-07-15 02:25:07,23.4,-7.0,30.5,0.7,2.3,112
2011-07-15 02:30:07,23.4,-7.0,30.4,0.7,2.3,111
2011-07-15 02:35:07,23.4,-7.0,30.4,0.7,2.3,112
2011-07-15 02:40:07,23.4,-7.0,30.4,0.7,2.3,111
2011-07-15 02:45:07,23.5,-7.0,30.4,0.7,2.3,111
2011-07-15 02:50:07,23.4,-7.0,30.5,0.7,2.3,112
2011-07-15 02:55:07,23.4,-7.0,30.5,0.7,2.3,111
2011-07-15 03:00:07,23.4,-7.0,30.4,0.7,2.3,112
2011-07-15 03:05:07,23.4,-7.1,30.5,0.7,2.3,112
2011-07-15 03:10:07,23.3,-7.0,30.4,0.7,2.3,111
2011-07-15 03:15:07,23.3,-7.0,30.4,0.6,2.3,112
2011-07-15 03:20:07,23.3,-7.1,30.4,0.6,2.3,111
2011-07-15 03:25:07,23.3,-7.0,30.3,0.6,2.3,112
2011-07-15 03:30:07,23.2,-7.1,30.4,0.6,2.3,111
2011-07-15 03:35:07,23.2,-7.1,30.3,0.6,2.3,112
2011-07-15 03:40:07,22.7,-7.3,30.0,0.6,2.3,112
2011-07-15 03:45:07,23.1,-7.3,30.4,0.6,2.3,111
2011-07-15 03:50:07,23.1,-7.3,30.4,0.7,2.3,111
2011-07-15 03:55:07,23.1,-7.3,30.4,0.8,2.3,111
2011-07-15 04:00:07,23.1,-7.2,30.3,0.9,2.3,112
2011-07-15 04:05:07,23.1,-7.2,30.3,1.2,2.3,111
2011-07-15 04:10:07,23.1,-7.3,30.4,1.6,2.3,112
2011-07-15 04:15:07,23.2,-7.3,30.5,2.4,2.4,111
2011-07-15 04:20:07,23.2,-7.3,30.5,3.6,2.4,112
2011-07-15 04:25:07,23.2,-7.3,30.5,5.6,2.3,111
2011-07-15 04:30:07,23.1,-7.6,30.7,8.4,2.3,111
2011-07-15 04:35:07,23.1,-7.6,30.7,12.1,2.3,111
2011-07-15 04:40:07,23.0,-7.6,30.6,16.3,2.3,111
2011-07-15 04:45:07,23.1,-7.5,30.6,20.4,2.4,112
2011-07-15 04:50:07,23.1,-7.6,30.6,24.0,2.4,111
2011-07-15 04:55:07,23.0,-7.4,30.4,26.7,2.5,112
2011-07-15 05:00:07,23.0,-7.3,30.3,28.6,2.5,111
2011-07-15 05:05:07,23.1,-7.0,30.1,29.8,2.5,111
2011-07-15 05:10:07,23.2,-7.2,30.4,30.5,2.5,112
2011-07-15 05:15:07,23.2,-7.6,30.8,31.0,2.5,111
2011-07-15 05:20:07,23.3,-7.2,30.5,31.3,2.5,111
2011-07-15 05:25:07,23.3,-7.0,30.3,31.5,2.5,112
2011-07-15 05:30:07,23.3,-7.0,30.2,31.7,2.4,112
2011-07-15 05:35:07,23.3,-7.1,30.4,31.9,2.3,111
2011-07-15 05:40:07,23.3,-7.3,30.6,32.0,2.3,111
2011-07-15 05:45:07,23.4,-7.3,30.6,32.0,2.3,112
2011-07-15 05:50:07,23.5,-7.2,30.7,32.0,2.3,111
2011-07-15 05:55:07,23.6,-7.2,30.8,32.1,2.3,112
2011-07-15 06:00:07,23.7,-7.0,30.7,32.1,2.2,112
2011-07-15 06:05:07,24.0,-6.7,30.6,32.2,2.2,111
2011-07-15 06:10:07,24.2,-6.5,30.6,32.2,2.3,112
2011-07-15 06:15:07,24.5,-6.3,30.8,32.2,2.3,112
2011-07-15 06:20:07,24.9,-6.1,31.0,32.2,2.3,112
2011-07-15 06:25:07,25.4,-5.9,31.2,32.2,2.3,112
2011-07-15 06:30:07,25.8,-5.0,30.8,32.2,2.3,111
2011-07-15 06:35:07,26.1,-6.4,32.5,32.2,2.3,112
2011-07-15 06:40:07,25.8,-6.0,31.8,32.2,2.1,111
2011-07-15 06:45:07,26.5,-6.0,32.4,32.2,2.1,112
2011-07-15 06:50:07,25.9,-6.0,31.9,32.2,2.3,112
2011-07-15 06:55:07,25.5,-6.1,31.6,32.3,2.3,112
2011-07-15 07:00:07,25.4,-5.9,31.3,32.3,2.3,111
2011-07-15 07:05:07,25.7,-5.9,31.6,32.3,2.2,112
2011-07-15 07:10:07,26.2,-5.9,32.2,32.2,2.3,111
2011-07-15 07:15:07,26.4,-5.3,31.7,32.2,2.3,112
2011-07-15 07:20:07,26.4,-4.9,31.3,32.3,2.3,111
2011-07-15 07:25:07,26.5,-3.3,29.8,32.3,2.3,112
2011-07-15 07:30:07,26.7,-3.0,29.7,32.4,2.3,112
2011-07-15 07:35:07,27.1,-3.3,30.4,32.4,2.3,112
2011-07-15 07:40:07,27.7,-4.0,31.8,32.3,2.3,112
2011-07-15 07:45:07,27.9,-4.1,32.0,32.3,2.3,112
2011-07-15 07:50:07,27.7,-3.9,31.6,32.3,2.3,112
2011-07-15 07:55:07,27.5,-3.6,31.1,32.3,2.3,111
2011-07-15 08:00:07,27.5,-3.1,30.6,32.4,2.3,112
2011-07-15 08:05:07,27.7,-2.5,30.2,32.4,2.3,112
2011-07-15 08:10:07,28.1,-2.1,30.3,32.4,2.3,112
2011-07-15 08:15:07,28.5,-1.6,30.1,32.4,2.3,111
2011-07-15 08:20:07,28.7,-0.3,29.1,32.4,2.3,111
2011-07-15 08:25:07,29.2,2.3,26.9,32.5,2.3,111
2011-07-15 08:30:07,30.1,4.0,26.1,32.5,2.3,112
2011-07-15 08:35:07,31.1,3.9,27.2,32.5,2.3,111
2011-07-15 08:40:07,32.0,2.8,29.2,32.5,2.3,112
2011-07-15 08:45:07,32.0,2.1,29.9,32.5,1.6,111
2011-07-15 08:50:07,31.5,1.1,30.4,32.5,2.1,111
2011-07-15 08:55:07,30.9,0.1,30.8,32.5,2.3,112
2011-07-15 09:00:07,30.2,-0.1,30.4,32.5,2.3,112
2011-07-15 09:05:07,29.6,-0.2,29.9,32.5,2.3,112
2011-07-15 09:10:07,29.4,-0.1,29.4,32.5,2.3,111
2011-07-15 09:15:07,29.4,-0.1,29.5,32.5,2.3,112
2011-07-15 09:20:07,29.6,0.4,29.2,32.5,2.3,112
2011-07-15 09:25:07,30.0,0.8,29.2,32.5,2.3,111
2011-07-15 09:30:07,30.6,0.8,29.8,32.5,2.3,111
2011-07-15 09:35:07,30.9,0.8,30.0,32.5,2.3,111
2011-07-15 09:40:07,31.2,-0.1,31.3,32.5,2.3,111
2011-07-15 09:45:07,31.3,-0.6,31.9,32.5,2.3,112
2011-07-15 09:50:07,31.3,-0.1,31.5,32.5,2.2,112
2011-07-15 09:55:07,31.4,0.5,30.9,32.5,1.5,111
2011-07-15 10:00:07,31.5,1.2,30.3,32.5,1.9,111
2011-07-15 10:05:07,31.8,0.2,31.7,32.5,1.5,112
2011-07-15 10:10:07,31.8,-0.7,32.4,32.5,1.5,111
2011-07-15 10:15:07,31.3,-0.9,32.2,32.5,1.9,112
2011-07-15 10:20:07,31.0,-0.7,31.7,32.5,2.3,112
2011-07-15 10:25:07,31.1,-0.5,31.6,32.6,2.3,112
2011-07-15 10:30:07,31.3,-0.0,31.3,32.6,1.8,111
2011-07-15 10:35:07,31.5,-0.1,31.6,32.6,1.9,112
2011-07-15 10:40:07,31.6,1.1,30.5,32.6,1.5,111
2011-07-15 10:45:07,32.0,2.0,30.0,32.6,1.5,111
2011-07-15 10:50:07,32.5,2.0,30.5,32.6,1.3,111
2011-07-15 10:55:07,32.7,1.4,31.3,32.6,1.1,111
2011-07-15 11:00:07,32.7,-0.3,32.9,32.6,1.2,112
2011-07-15 11:05:07,32.2,0.5,31.8,32.6,1.2,111
2011-07-15 11:10:07,32.2,0.7,31.4,32.6,1.3,112
2011-07-15 11:15:07,32.3,0.2,32.1,32.6,1.2,111
2011-07-15 11:20:07,32.3,0.9,31.3,32.6,1.2,112
2011-07-15 11:25:07,32.5,0.8,31.6,32.6,1.2,111
2011-07-15 11:30:07,32.5,1.9,30.6,32.6,1.1,111
2011-07-15 11:35:07,32.7,2.8,30.0,32.6,1.2,111
2011-07-15 11:40:07,33.1,4.1,29.1,32.6,1.3,112
2011-07-15 11:45:07,33.6,3.2,30.4,32.6,1.5,112
2011-07-15 11:50:07,33.3,4.0,29.3,32.6,1.5,111
2011-07-15 11:55:07,33.2,5.4,27.8,32.6,1.5,112
2011-07-15 12:00:07,33.5,4.9,28.6,32.6,1.6,111
2011-07-15 12:05:07,33.4,5.5,27.8,32.6,1.6,112
2011-07-15 12:10:07,33.2,4.9,28.3,32.6,1.5,112
2011-07-15 12:15:07,32.5,4.8,27.7,32.6,1.3,111
2011-07-15 12:20:07,32.2,6.8,25.5,32.6,1.2,112
2011-07-15 12:25:07,32.2,4.5,27.7,32.6,1.2,111
2011-07-15 12:30:07,31.8,3.5,28.3,32.6,1.3,112
2011-07-15 12:35:07,32.4,4.7,27.7,32.6,1.2,111
2011-07-15 12:40:07,33.2,2.8,30.4,32.6,1.5,112
2011-07-15 12:45:07,33.7,3.1,30.6,32.6,1.6,111
2011-07-15 12:50:07,33.8,1.9,32.0,32.6,1.7,111
2011-07-15 12:55:07,33.9,3.1,30.8,32.6,1.8,112
2011-07-15 13:00:07,34.2,1.6,32.5,32.6,1.8,111
2011-07-15 13:05:07,34.0,2.7,31.3,32.6,1.8,111
2011-07-15 13:10:07,34.1,2.0,32.1,32.6,1.8,111
2011-07-15 13:15:07,34.0,1.7,32.3,32.6,1.8,111
2011-07-15 13:20:07,34.0,1.5,32.5,32.6,1.8,111
2011-07-15 13:25:07,33.9,1.0,32.9,32.6,1.8,111
2011-07-15 13:30:07,33.9,1.5,32.4,32.6,1.8,111
2011-07-15 13:35:07,34.0,2.1,31.9,32.6,1.8,111
2011-07-15 13:40:07,34.1,1.3,32.7,32.6,1.8,111
2011-07-15 13:45:07,33.9,2.3,31.6,32.6,1.8,111
2011-07-15 13:50:07,34.3,2.8,31.5,32.6,1.9,112
2011-07-15 13:55:07,34.2,1.9,32.4,32.6,1.9,111
2011-07-15 14:00:07,34.1,2.7,31.4,32.6,1.9,111
2011-07-15 14:05:07,34.0,2.0,32.0,32.6,1.9,111
2011-07-15 14:10:07,33.4,1.3,32.1,32.6,1.8,111
2011-07-15 14:15:08,33.0,3.5,29.5,32.6,1.6,112
2011-07-15 14:20:08,33.5,4.4,29.1,32.6,1.7,111
2011-07-15 14:25:08,33.9,3.9,30.0,32.6,1.8,112
2011-07-15 14:30:08,33.8,2.7,31.1,32.6,1.8,111
2011-07-15 14:35:08,33.5,3.9,29.7,32.6,1.8,111
2011-07-15 14:40:08,33.7,3.5,30.2,32.6,1.8,112
2011-07-15 14:45:08,33.6,2.4,31.2,32.6,1.8,111
2011-07-15 14:50:08,32.9,1.7,31.2,32.6,1.6,111
2011-07-15 14:55:08,32.1,1.5,30.6,32.6,1.3,111
2011-07-15 15:00:08,31.3,2.5,28.8,32.6,1.3,112
2011-07-15 15:05:08,31.0,3.3,27.7,32.6,1.4,111
2011-07-15 15:10:08,31.1,4.3,26.8,32.6,1.3,111
2011-07-15 15:15:08,31.5,5.3,26.2,32.6,1.5,112
2011-07-15 15:20:08,32.0,5.8,26.2,32.6,1.2,111
2011-07-15 15:25:08,32.3,5.4,26.9,32.6,1.2,112
2011-07-15 15:30:08,32.2,4.6,27.6,32.6,1.2,112
2011-07-15 15:35:08,31.7,5.9,25.8,32.6,1.2,111
2011-07-15 15:40:08,31.6,5.9,25.8,32.6,1.2,112
2011-07-15 15:45:08,31.4,6.2,25.2,32.6,1.4,111
2011-07-15 15:50:08,31.0,6.4,24.6,32.6,1.6,112
2011-07-15 15:55:08,30.8,7.1,23.7,32.6,1.4,111
2011-07-15 16:00:08,30.9,6.6,24.3,32.6,1.6,112
2011-07-15 16:05:08,30.9,4.3,26.6,32.6,1.8,112
2011-07-15 16:10:08,30.2,4.9,25.3,32.6,2.1,111
2011-07-15 16:15:08,29.7,5.9,23.8,32.6,2.3,112
2011-07-15 16:20:08,29.5,7.3,22.2,32.6,2.3,111
2011-07-15 16:25:08,29.2,9.1,20.2,32.6,2.3,112
2011-07-15 16:30:08,28.1,7.7,20.4,32.6,2.3,111
2011-07-15 16:35:08,29.8,7.5,22.3,32.6,2.3,112
2011-07-15 16:40:08,30.1,7.8,22.3,32.6,2.3,112
2011-07-15 16:45:08,30.3,7.3,23.0,32.6,2.3,111
2011-07-15 16:50:08,30.3,6.9,23.4,32.6,2.3,112
2011-07-15 16:55:08,30.5,6.1,24.3,32.6,2.3,111
2011-07-15 17:00:08,30.1,6.2,24.0,32.6,2.3,112
2011-07-15 17:05:08,29.9,6.9,23.0,32.6,2.3,111
2011-07-15 17:10:08,29.9,6.3,23.6,32.6,2.3,112
2011-07-15 17:15:08,29.9,5.9,24.0,32.6,2.3,112
2011-07-15 17:20:08,30.3,8.1,22.2,32.6,2.3,111
2011-07-15 17:25:08,31.7,6.4,25.3,32.6,1.5,111
2011-07-15 17:30:08,32.1,1.7,30.4,32.6,1.2,112
2011-07-15 17:35:08,31.0,3.4,27.6,32.6,1.6,111
2011-07-15 17:40:08,30.3,8.0,22.3,32.6,2.2,111
2011-07-15 17:45:08,30.2,5.3,24.8,32.6,2.2,112
2011-07-15 17:50:08,30.2,5.0,25.2,32.6,2.3,112
2011-07-15 17:55:08,29.6,6.4,23.2,32.6,2.3,111
2011-07-15 18:00:08,29.3,7.8,21.5,32.5,2.3,111
2011-07-15 18:05:08,29.1,8.2,20.9,32.5,2.3,112
2011-07-15 18:10:08,28.7,7.8,20.9,32.5,2.3,112
2011-07-15 18:15:08,26.7,8.5,18.3,32.5,2.3,111
2011-07-15 18:20:08,24.4,8.2,16.1,32.5,2.3,111
2011-07-15 18:25:08,23.7,7.8,15.9,32.5,2.3,112
2011-07-15 18:30:08,23.3,8.2,15.1,32.5,2.3,111
2011-07-15 18:35:08,23.1,8.4,14.6,32.5,2.3,112
2011-07-15 18:40:08,22.9,8.1,14.8,32.5,2.3,111
2011-07-15 18:45:08,22.8,7.9,14.9,32.5,2.5,111
2011-07-15 18:50:08,22.7,7.5,15.1,32.5,2.4,112
2011-07-15 18:55:08,22.5,8.1,14.4,32.5,2.4,111
2011-07-15 19:00:08,22.3,9.1,13.2,32.5,2.7,112
2011-07-15 19:05:08,22.1,9.4,12.8,32.5,3.0,111
2011-07-15 19:10:08,22.0,9.1,12.9,32.5,2.4,112
2011-07-15 19:15:08,21.9,9.9,12.0,32.4,2.9,112
2011-07-15 19:20:08,21.8,9.2,12.6,32.5,2.5,111
2011-07-15 19:25:08,21.8,9.6,12.3,32.4,2.5,112
2011-07-15 19:30:08,21.7,10.1,11.6,32.3,2.4,111
2011-07-15 19:35:08,21.5,9.0,12.5,32.3,4.7,112
2011-07-15 19:40:08,21.3,9.0,12.3,32.2,5.0,112
2011-07-15 19:45:08,20.9,8.7,12.2,32.1,4.6,111
2011-07-15 19:50:08,20.6,9.0,11.6,32.1,3.7,111
2011-07-15 19:55:08,20.4,9.0,11.5,32.1,3.4,112
2011-07-15 20:00:08,20.4,8.9,11.4,32.1,8.4,111
2011-07-15 20:05:08,20.3,9.4,10.8,32.1,8.4,111
2011-07-15 20:10:08,20.2,11.3,8.9,32.0,5.1,111
2011-07-15 20:15:08,19.9,10.7,9.2,32.0,4.1,112
2011-07-15 20:20:08,20.3,11.5,8.8,32.0,3.3,111
2011-07-15 20:25:08,20.4,11.2,9.2,32.0,2.9,111
2011-07-15 20:30:08,20.5,10.5,10.0,32.0,2.9,111
2011-07-15 20:35:08,20.6,10.1,10.4,31.9,4.5,112
2011-07-15 20:40:08,20.6,10.9,9.7,31.6,4.2,112
2011-07-15 20:45:08,20.5,11.1,9.4,31.6,2.8,111
2011-07-15 20:50:08,20.5,11.6,9.0,31.2,2.5,111
2011-07-15 20:55:08,20.6,10.9,9.6,30.7,2.5,112
2011-07-15 21:00:08,20.6,11.8,8.7,29.7,2.8,111
2011-07-15 21:05:08,20.6,11.8,8.8,29.1,3.8,112
2011-07-15 21:10:08,20.6,11.4,9.1,28.1,5.5,111
2011-07-15 21:15:08,20.5,11.7,8.8,26.3,3.2,111
2011-07-15 21:20:08,20.5,11.7,8.8,24.9,2.9,111
2011-07-15 21:25:08,20.5,11.3,9.2,22.8,5.8,112
2011-07-15 21:30:08,20.5,10.3,10.2,19.8,14.3,111
2011-07-15 21:35:08,20.5,12.4,8.1,14.9,8.0,111
2011-07-15 21:40:08,20.4,11.4,9.1,11.2,4.0,111
2011-07-15 21:45:08,20.4,11.4,9.0,8.6,5.6,112
2011-07-15 21:50:08,20.4,11.9,8.5,5.1,2.5,111
2011-07-15 21:55:08,20.5,11.9,8.6,3.3,2.9,112
2011-07-15 22:00:08,20.5,11.6,8.9,2.4,2.7,111
2011-07-15 22:05:08,20.5,11.9,8.6,1.4,2.5,111
2011-07-15 22:10:08,20.6,11.9,8.7,1.0,2.5,112
2011-07-15 22:15:08,20.6,11.8,8.8,0.5,2.3,111
2011-07-15 22:20:08,20.6,11.3,9.4,0.4,2.4,111
2011-07-15 22:25:08,20.6,10.8,9.8,0.3,3.9,112
2011-07-15 22:30:08,20.4,11.1,9.4,0.2,2.9,111
2011-07-15 22:35:08,20.4,10.4,9.9,0.1,4.5,112
2011-07-15 22:40:08,20.4,11.3,9.1,0.1,17.7,112
2011-07-15 22:45:08,20.5,13.4,7.1,0.1,14.1,111
2011-07-15 22:50:08,20.5,13.9,6.7,0.1,20.5,111
2011-07-15 22:55:08,20.6,13.4,7.2,0.0,14.8,111
2011-07-15 23:00:08,20.3,12.8,7.5,0.0,3.2,112
2011-07-15 23:05:08,20.2,13.8,6.4,0.0,2.8,111
2011-07-15 23:10:08,20.1,10.9,9.3,0.0,2.7,112
2011-07-15 23:15:08,20.2,11.0,9.2,0.0,2.7,111
2011-07-15 23:20:08,20.2,11.2,8.9,0.0,2.5,111
2011-07-15 23:25:08,20.2,11.1,9.1,0.0,2.6,112
2011-07-15 23:30:08,19.9,11.1,8.8,0.0,3.5,111
2011-07-15 23:35:08,20.2,10.7,9.5,0.0,10.6,112
2011-07-15 23:40:08,20.3,10.6,9.7,0.0,6.1,111
2011-07-15 23:45:08,20.2,11.5,8.7,0.0,6.6,111
2011-07-15 23:50:08,20.2,10.4,9.9,0.0,8.5,112
2011-07-15 23:55:08,20.2,11.2,9.1,0.0,8.5,111
